STARLINK-32961, 63122

Orbit data source: Space-Track

STARLINK-32961, 63122 is a payload satellite owned by SpaceX/Seattle (US) in LEO that was launched on Thu, 27 Feb 2025 UTC via an FALCON 9 launch vehicle from the Air Force Eastern Test Range (AFETR). Payload-class satellites include a variety of spacecraft equipped with specific instruments for various scientific and technological missions. These include communications satellites like Starlink; space stations such as the ISS; scientific satellites like the Hubble; Earth observation satellites from companies like Planet Labs, Umbra, and HawkEye 360; GPS; miniature CubeSats for education and research; and military/defense satellites.

Loading next visibility...
Identifier
63122, 2025-039U
Orbit
LEO
Country
Flag of USUS
Related business
Manufacturer
SpaceX/Seattle
Mission
Operational Commercial Communications
Bus & Motor
STARLINK V2M, Unknown motor
Mass
730 kg wet, ~700 kg dry
Launch date (UTC)
2025-02-27 (7 months ago)
Launch vehicle
FALCON 9
Launch site
Air Force Eastern Test Range (AFETR)
Object type
Payload
Rocket body
Debris
Shape & HBR
Box + 2 Pan, 14.5 m
Radar Cross Section
33.884 m², Large (>1 m²)

Expand to show TLE details & history
Last TLE update: 2 days ago

TLE from 2 days ago
0 STARLINK-32961
1 63122U 25039U   25260.07375131  .00012128  00000-0  44964-3 0  9999
2 63122  42.9977 273.3449 0000898 276.2631  83.8119 15.27571653 31510
Epoch: 2025-09-17T01:46Z
TLE epoch observation values (Epoch: 2025-09-17T01:46:12.113Z)
Latitude
0.00004°
Longitude
-109.46045°
Altitude
482.783 km
Speed
7.626 km/s
True Right ascension
18h 13m 22s
True Declination
0° 00' 00"
Sunlit
Object was in daylight at epoch
Visualization orbit readout
Latitude
Unknown
Longitude
Unknown
Altitude
Unknown
Speed
Unknown
Apparent Right ascension
Unknown
Apparent Declination
Unknown
Sunlit
N/A
Visualization observer readout
Local Sidereal Time
11:09:22
Azimuth
Unknown
Elevation
Unknown
Doppler factor
Unknown
Orbital elements
Apogee altitude
485.636 km
Perigee altitude
484.403 km
Semi-major axis
6,863.157 km
Eccentricity
0.00009
Inclination
42.9977°
RAAN
273.3449°
Arg. of periapsis
276.2631°
True anomaly
83.82213°
Mean anomaly
83.8119°
Eccentric anomaly
83.81702°
Mean motion
3.81731 °/min
Orbital period
94.31 mins
BSTAR
0.00044964
Loading maneuver chart data...
Computing Atmospheric mass density...
Loading historical data...
Loading historical data...
Loading historical data...
Loading historical data...
Loading historical data...
Loading historical data...
Loading historical data...

Documentation

Showing up to 5 results
|